Location: Nickerson Gardens
(33.9320°N, 118.2484°W)
Time: 05:52:16
(UTC+00:00)

N. Korean satellite - Pass Details

Date: 29 January 2021
Orbit: 451 x 502 km, 97.2° (Epoch: 08 March)

Event Time Altitude Azimuth Distance (km) Brightness Sun altitude
Rises 12:25:05 0° 32° (NNE) 2,475 10.5 -30.5°
Reaches altitude 10° 12:27:46 10° 56° (NE) 1,591 9.8 -30.0°
Maximum altitude 12:29:53 16° 95° (E) 1,281 9.5 -29.5°
Drops below altitude 10° 12:31:59 10° 133° (SE) 1,578 9.7 -29.1°
Sets 12:34:38 0° 157° (SSE) 2,444 10.5 -28.5°
